Weather History for KHNB - April, 2014

Change the Weather History Date:

Monday, April 14, 2014

  Actual Average Record
Temperature  
Mean Temperature 56 °F -  
Max Temperature 71 °F 63 °F 84 °F (2006)
Min Temperature 41 °F 45 °F 28 °F (1997)
Degree Days  
Heating Degree Days 8    
Growing Degree Days 6 (Base 50)    
Moisture  
Dew Point 50 °F    
Average Humidity 76    
Maximum Humidity 82    
Minimum Humidity 53    
Precipitation  
Precipitation 0.45 in - - ()
Sea Level Pressure  
Sea Level Pressure 29.75 in    
Wind  
Wind Speed 16 mph (West)    
Max Wind Speed 40 mph    
Max Gust Speed 48 mph    
Visibility 9 miles    
Events Thunderstorm    
Averages and records for this station are not official NWS values.
T = Trace of Precipitation, MM = Missing Value Source: NWS Daily Summary

Daily Weather History Graph

Daily Weather History Graph

Search for Another Location

Airport or City:

Trip Planner

Search our weather history database for the weather conditions in past years. The results will help you decide how hot, cold, wet, or windy it might be!

Date:

Astronomy

Apr. 14, 2014 Rise Set
Actual Time 7:13 AM EDT 8:23 PM EDT
Civil Twilight 6:46 AM EDT 8:50 PM EDT
Nautical Twilight 6:13 AM EDT 9:23 PM EDT
Astronomical Twilight 5:40 AM EDT 9:56 PM EDT
Moon 8:01 PM EDT (4/14) 6:44 AM EDT (4/14)
Length of Visible Light 14h 04m
Length of Day
13h 09m
Full, 100% of the Moon is Illuminated
Apr 14
Full
Apr 15
Full
Apr 22
Last Quarter
Apr 29
New
May 6
First Quarter

Hourly Weather History & Observations

Time (EDT) Temp. Windchill Dew Point Humidity Pressure Visibility Wind Dir Wind Speed Gust Speed Precip Events Conditions
12:15 AM 71.6 °F - 53.6 °F 53% 29.68 in 10.0 mi South 16.1 mph 25.3 mph N/A   Clear
12:35 AM 71.6 °F - 53.6 °F 53% 29.68 in 10.0 mi South 17.3 mph 25.3 mph N/A   Partly Cloudy
12:55 AM 71.6 °F - 53.6 °F 53% 29.67 in 10.0 mi SSW 19.6 mph 28.8 mph N/A   Partly Cloudy
1:15 AM 71.6 °F - 53.6 °F 53% 29.67 in 10.0 mi SSW 16.1 mph 24.2 mph N/A   Scattered Clouds
1:35 AM 69.8 °F - 55.4 °F 60% 29.67 in 10.0 mi SSW 18.4 mph 27.6 mph N/A   Mostly Cloudy
1:55 AM 66.2 °F - 55.4 °F 68% 29.67 in 9.0 mi SSW 29.9 mph 35.7 mph 0.01 in   Mostly Cloudy
2:15 AM 66.2 °F - 57.2 °F 73% 29.72 in 7.0 mi SSW 40.3 mph 48.3 mph 0.09 in   Overcast
2:35 AM 60.8 °F - 53.6 °F 77% 29.73 in 8.0 mi SSW 20.7 mph 47.2 mph 0.10 in   Overcast
2:55 AM 60.8 °F - 53.6 °F 77% 29.70 in 10.0 mi SSW 13.8 mph 25.3 mph 0.11 in   Mostly Cloudy
3:15 AM 60.8 °F - 53.6 °F 77% 29.71 in 10.0 mi SSW 12.7 mph - N/A   Scattered Clouds
3:35 AM 60.8 °F - 55.4 °F 82% 29.69 in 10.0 mi South 15.0 mph - 0.01 in   Mostly Cloudy
3:55 AM 60.8 °F - 55.4 °F 82% 29.69 in 10.0 mi SSW 15.0 mph 19.6 mph 0.01 in   Partly Cloudy
4:15 AM 60.8 °F - 55.4 °F 82% 29.70 in 9.0 mi SSW 16.1 mph 20.7 mph 0.01 in   Mostly Cloudy
4:35 AM 62.6 °F - 55.4 °F 77% 29.68 in 8.0 mi South 17.3 mph 24.2 mph 0.02 in   Overcast
4:55 AM 60.8 °F - 55.4 °F 82% 29.68 in 7.0 mi South 11.5 mph 23.0 mph 0.06 in   Overcast
5:15 AM 60.8 °F - 55.4 °F 82% 29.68 in 10.0 mi SSW 11.5 mph 16.1 mph N/A   Mostly Cloudy
5:35 AM 60.8 °F - 55.4 °F 82% 29.66 in 8.0 mi South 10.4 mph - 0.03 in   Overcast
5:55 AM 60.8 °F - 55.4 °F 82% 29.67 in 9.0 mi South 8.1 mph - 0.04 in   Mostly Cloudy
6:15 AM 60.8 °F - 55.4 °F 82% 29.65 in 9.0 mi South 11.5 mph 17.3 mph 0.13 in   Mostly Cloudy
6:35 AM 62.6 °F - 55.4 °F 77% 29.65 in 10.0 mi South 15.0 mph 18.4 mph 0.13 in   Mostly Cloudy
6:55 AM 62.6 °F - 55.4 °F 77% 29.64 in 10.0 mi South 16.1 mph 26.5 mph 0.13 in   Mostly Cloudy
7:15 AM 62.6 °F - 55.4 °F 77% 29.63 in 10.0 mi South 18.4 mph 28.8 mph N/A   Mostly Cloudy
7:35 AM 62.6 °F - 55.4 °F 77% 29.65 in 10.0 mi SSW 13.8 mph 24.2 mph N/A   Mostly Cloudy
8:15 AM 62.6 °F - 57.2 °F 82% 29.68 in 10.0 mi SW 10.4 mph - N/A   Scattered Clouds
8:35 AM 62.6 °F - 57.2 °F 82% 29.70 in 10.0 mi SW 10.4 mph 17.3 mph N/A   Partly Cloudy
8:55 AM 62.6 °F - 57.2 °F 82% 29.71 in 10.0 mi SW 12.7 mph 18.4 mph N/A   Mostly Cloudy
9:15 AM 62.6 °F - 57.2 °F 82% 29.72 in 10.0 mi SW 13.8 mph 19.6 mph N/A   Mostly Cloudy
9:35 AM 62.6 °F - 57.2 °F 82% 29.72 in 10.0 mi SW 13.8 mph - N/A   Overcast
9:55 AM 64.4 °F - 57.2 °F 77% 29.73 in 10.0 mi SW 15.0 mph 19.6 mph N/A   Overcast
10:15 AM 62.6 °F - 57.2 °F 82% 29.74 in 10.0 mi SW 15.0 mph - N/A   Overcast
10:35 AM 62.6 °F - 55.4 °F 77% 29.74 in 10.0 mi WSW 12.7 mph - N/A   Mostly Cloudy
10:55 AM 62.6 °F - 55.4 °F 77% 29.75 in 10.0 mi WSW 15.0 mph 19.6 mph N/A   Overcast
11:15 AM 62.6 °F - 55.4 °F 77% 29.75 in 10.0 mi WSW 18.4 mph 24.2 mph N/A   Overcast
11:35 AM 62.6 °F - 53.6 °F 72% 29.76 in 10.0 mi WSW 13.8 mph 21.9 mph N/A   Overcast
11:55 AM 62.6 °F - 53.6 °F 72% 29.77 in 10.0 mi WSW 17.3 mph 23.0 mph N/A   Overcast
12:15 PM 62.6 °F - 55.4 °F 77% 29.77 in 10.0 mi West 15.0 mph 20.7 mph N/A   Overcast
12:35 PM 62.6 °F - 53.6 °F 72% 29.77 in 10.0 mi WSW 12.7 mph - N/A   Mostly Cloudy
12:55 PM 62.6 °F - 53.6 °F 72% 29.77 in 10.0 mi WSW 17.3 mph 25.3 mph N/A   Overcast
1:15 PM 62.6 °F - 53.6 °F 72% 29.77 in 10.0 mi WSW 18.4 mph 23.0 mph N/A   Overcast
1:35 PM 62.6 °F - 53.6 °F 72% 29.77 in 10.0 mi WSW 15.0 mph 23.0 mph N/A   Overcast
1:55 PM 62.6 °F - 53.6 °F 72% 29.77 in 10.0 mi SW 16.1 mph - N/A   Overcast
2:15 PM 57.2 °F - 51.8 °F 82% 29.78 in 5.0 mi NW 11.5 mph 19.6 mph N/A   Overcast
2:35 PM 57.2 °F - 51.8 °F 82% 29.79 in 7.0 mi NW 11.5 mph - N/A   Overcast
2:55 PM 57.2 °F - 50.0 °F 77% 29.78 in 10.0 mi WNW 12.7 mph - N/A   Overcast
3:15 PM 55.4 °F - 50.0 °F 82% 29.77 in 10.0 mi NW 9.2 mph - N/A   Overcast
3:35 PM 55.4 °F - 50.0 °F 82% 29.77 in 10.0 mi NNW 9.2 mph - N/A   Overcast
3:55 PM 55.4 °F - 48.2 °F 77% 29.77 in 10.0 mi NNW 9.2 mph - N/A   Overcast
4:15 PM 53.6 °F - 48.2 °F 82% 29.77 in 5.0 mi NNW 9.2 mph - N/A   Overcast
4:35 PM 53.6 °F - 46.4 °F 77% 29.77 in 3.0 mi NNW 10.4 mph - N/A   Overcast
4:55 PM 53.6 °F - 46.4 °F 77% 29.75 in 8.0 mi NNW 10.4 mph - N/A   Overcast
5:15 PM 53.6 °F - 46.4 °F 77% 29.75 in 6.0 mi NNW 12.7 mph 19.6 mph N/A   Overcast
5:35 PM 51.8 °F - 46.4 °F 82% 29.76 in 2.5 mi NNW 13.8 mph - N/A   Overcast
5:55 PM 51.8 °F - 46.4 °F 82% 29.78 in 3.0 mi NW 13.8 mph - N/A   Overcast
6:15 PM 51.8 °F - 44.6 °F 76% 29.80 in 2.0 mi NNW 15.0 mph 21.9 mph N/A   Overcast
6:35 PM 50.0 °F - 44.6 °F 82% 29.81 in 2.0 mi NW 18.4 mph 23.0 mph N/A   Overcast
6:55 PM 48.2 °F - 42.8 °F 82% 29.82 in 7.0 mi NNW 12.7 mph - N/A Thunderstorm Overcast
7:15 PM 48.2 °F - 42.8 °F 82% 29.80 in 10.0 mi NNW 13.8 mph 25.3 mph 0.02 in   Overcast
7:35 PM 48.2 °F - 42.8 °F 82% 29.81 in 9.0 mi NNW 11.5 mph - 0.03 in   Overcast
7:55 PM 48.2 °F - 41.0 °F 76% 29.81 in 7.0 mi NW 12.7 mph - 0.04 in   Overcast
8:15 PM 46.4 °F 39.8 °F 39.2 °F 76% 29.81 in 10.0 mi NNW 16.1 mph 20.7 mph N/A   Overcast
8:35 PM 46.4 °F 40.7 °F 39.2 °F 76% 29.82 in 10.0 mi NNW 12.7 mph - N/A   Mostly Cloudy
8:55 PM 46.4 °F 41.1 °F 39.2 °F 76% 29.84 in 10.0 mi NNW 11.5 mph 21.9 mph N/A   Overcast
9:15 PM 46.4 °F 40.4 °F 39.2 °F 76% 29.85 in 7.0 mi NNW 13.8 mph 18.4 mph N/A   Overcast
9:35 PM 44.6 °F 37.4 °F 39.2 °F 81% 29.86 in 10.0 mi NNW 16.1 mph 21.9 mph N/A   Overcast
9:55 PM 44.6 °F 37.8 °F 37.4 °F 76% 29.85 in 10.0 mi North 15.0 mph 21.9 mph N/A   Overcast
10:15 PM 44.6 °F 37.8 °F 37.4 °F 76% 29.88 in 10.0 mi NNW 15.0 mph 21.9 mph N/A   Mostly Cloudy
10:35 PM 44.6 °F 38.1 °F 37.4 °F 76% 29.89 in 10.0 mi NNW 13.8 mph 21.9 mph N/A   Overcast
10:55 PM 42.8 °F 35.1 °F 35.6 °F 76% 29.90 in 7.0 mi North 16.1 mph 24.2 mph 0.03 in   Overcast
11:15 PM 42.8 °F 34.5 °F 35.6 °F 76% 29.91 in 9.0 mi NNW 18.4 mph 24.2 mph 0.02 in   Overcast
11:35 PM 42.8 °F 34.8 °F 35.6 °F 76% 29.91 in 10.0 mi North 17.3 mph 24.2 mph 0.02 in   Overcast
11:55 PM 41.0 °F 31.4 °F 33.8 °F 76% 29.93 in 6.0 mi North 21.9 mph 29.9 mph 0.02 in   Overcast